Regional Weather Roundup
Issued by NWS

Home | Current Version | Previous Version | Graphics & Text | Print | Product List | Glossary On
Versions: 1 2 3 4 5 6 7 8 9 10 11 12 13 14 15 16 17 18 19 20 21 22 23 24 25 26 27 28 29 30 31 32 33 34 35 36 37 38 39 40 41 42 43 44 45 46 47 48 49 50
000
ASUS43 KFSD 170110
RWRSD

WEATHER ROUNDUP FOR SOUTH DAKOTA
NATIONAL WEATHER SERVICE SIOUX FALLS SD
800 PM CDT TUE SEP 16 2014

NOTE: "FAIR" INDICATES FEW OR NO CLOUDS BELOW 12,000 FEET WITH NO
SIGNIFICANT WEATHER AND/OR OBSTRUCTIONS TO VISIBILITY.


SDZ001>005-009-010-012>017-170200-
NORTHWEST AND NORTH CENTRAL SOUTH DAKOTA

CITY           SKY/WX    TMP DP  RH WIND       PRES   REMARKS
BUFFALO          N/A     72  48  42 NW5       29.88S
FAITH            N/A     68  49  50 SE8       29.92S
MOBRIDGE       CLEAR     59  54  83 NE6       29.88F
$$

SDZ012>016-024>037-041>051-057-063-072>074-170200-
SOUTHWEST AND SOUTH CENTRAL SOUTH DAKOTA

CITY           SKY/WX    TMP DP  RH WIND       PRES   REMARKS
RAPID CTY ARPT CLEAR     71  48  43 CALM      29.95S
PIERRE         CLEAR     70  52  52 CALM      29.88S
CUSTER         PTCLDY    65  43  44 NE6       30.08R
ELLSWORTH AFB  CLEAR     73  49  42 SW2       29.95S
PHILIP         PTCLDY    71  52  50 SE5       29.90S
PINE RIDGE     CLEAR     67  54  63 E5        29.94F
WINNER         FAIR      74  54  49 CALM      29.90F
$$

SDZ004>011-016>023-039-040-170200-
NORTHEAST SOUTH DAKOTA

CITY           SKY/WX    TMP DP  RH WIND       PRES   REMARKS
ABERDEEN       CLEAR     59  55  87 CALM      29.91S
WATERTOWN      CLOUDY    62  51  67 SE7       29.95S
SISSETON         N/A     64  51  62 S7        29.92F
$$

SDZ017-020-022-023-036>040-048>070-170200-
SOUTHEAST SOUTH DAKOTA

CITY           SKY/WX    TMP DP  RH WIND       PRES   REMARKS
SIOUX FALLS    MOCLDY    64  50  60 S9        29.97F
HURON          PTCLDY    67  55  65 SE7       29.90S
CHAMBERLAIN    CLEAR     67  58  71 E5        29.89S
MITCHELL       PTCLDY    66  56  70 S10       29.92F
YANKTON        PTCLDY    63  52  67 SE6       29.96F
$$

ABBREVIATIONS USED IN REMARKS
   TC - TEMPERATURE IN CELSIUS
  WCI - WIND CHILL INDEX
   HX - HEAT INDEX
  VSB - VISIBILITY



USA.gov is the U.S. government's official web portal to all federal, state and local government web resources and services.